Location: Riverside Cemetery
(38.3047°N, 99.7773°W)
Time: 11:17:37
(UTC+00:00)

Cosmos 1821 Rocket - Pass Details

Date: 19 September 2020
Orbit: 944 x 1005 km, 82.9° (Epoch: 25 October)

Event Time Altitude Azimuth Distance (km) Brightness Sun altitude
Rises 09:46:53 0° 351° (N) 3,708 7.3 -30.4°
Reaches altitude 10° 09:49:26 10° 349° (N) 2,747 6.5 -30.0°
Enters shadow 09:54:45 62° 321° (NW) 1,087 4.1 -29.1°
